Date,TemperatureHighF,TemperatureAvgF,TemperatureLowF,DewpointHighF,DewpointAvgF,DewpointLowF,HumidityHigh,HumidityAvg,HumidityLow,PressureMaxIn,PressureMinIn,WindSpeedMaxMPH,WindSpeedAvgMPH,GustSpeedMaxMPH,PrecipitationSumIn
2013-1-1,56.8,42.3,32.7,38.8,32.8,28.8,90,71,41,30.25,30.14,5,0,5,0.00
2013-1-2,55.2,40.3,30.2,40.6,32.5,26.0,88,74,57,30.21,30.07,5,0,5,0.00
2013-1-3,54.0,40.6,30.2,40.7,33.6,26.7,88,77,59,30.24,30.14,4,0,5,0.02
2013-1-4,56.1,43.1,33.6,42.8,35.9,29.8,89,76,60,30.26,30.12,4,0,5,0.00
2013-1-5,48.0,42.3,34.3,43.9,38.2,30.2,90,86,79,30.22,30.01,4,0,6,0.41
2013-1-6,55.0,46.6,39.6,45.5,41.9,35.9,91,84,69,30.16,30.02,5,0,8,0.02
2013-1-7,60.1,46.5,36.7,49.9,41.4,33.7,90,83,68,30.22,30.09,5,0,7,0.00
2013-1-8,59.7,47.4,39.4,50.0,42.4,36.4,91,83,69,30.20,30.07,4,0,5,0.00
2013-1-9,50.7,44.2,37.4,46.4,40.2,33.4,90,86,76,30.12,29.93,7,0,9,0.04
2013-1-10,51.1,41.1,33.1,36.8,32.6,30.0,91,73,50,30.17,30.02,13,2,16,0.00
2013-1-11,52.5,42.0,35.8,39.3,33.6,29.6,81,72,57,30.22,30.06,5,1,6,0.00
2013-1-12,50.5,41.0,32.5,33.9,30.7,27.2,85,68,46,30.22,30.08,6,0,7,0.00
2013-1-13,50.0,38.0,28.2,35.0,28.1,19.9,85,69,43,30.24,30.12,5,0,5,0.00
2013-1-14,54.1,41.6,30.9,31.8,25.4,17.4,76,54,34,30.36,30.20,4,0,7,0.00
2013-1-15,53.4,40.1,30.7,36.2,30.8,26.5,86,71,50,30.45,30.35,5,0,14,0.00
2013-1-16,57.4,41.5,30.6,39.0,32.6,26.7,88,72,49,30.43,30.23,5,0,5,0.02
2013-1-17,59.9,42.4,30.4,42.4,34.4,27.0,90,74,51,30.25,30.09,6,0,6,0.00
2013-1-18,61.0,43.3,31.5,44.7,35.1,27.9,90,74,51,30.20,30.07,4,0,4,0.00
2013-1-19,62.2,44.0,31.1,43.7,35.2,27.6,90,73,50,30.24,30.11,4,0,5,0.00
2013-1-20,61.5,43.7,31.3,42.4,34.3,27.6,88,71,47,30.23,30.09,4,0,5,0.00
2013-1-21,62.2,44.3,31.3,44.3,35.2,27.6,88,72,49,30.18,30.05,6,0,6,0.00
2013-1-22,61.3,45.6,33.1,44.8,36.9,29.3,88,73,53,30.11,29.95,4,0,4,0.00
2013-1-23,50.7,48.2,46.0,46.3,42.9,38.6,90,82,75,30.05,29.93,2,0,4,0.43
2013-1-26,58.3,49.7,40.5,46.4,41.3,34.6,92,75,48,30.05,29.93,18,2,18,0.00
2013-1-27,56.3,44.8,34.3,40.1,34.7,30.5,88,69,46,30.17,30.04,12,2,12,0.00
2013-1-28,57.9,47.4,37.2,41.8,37.1,32.4,86,68,51,30.27,30.15,16,2,16,0.00
2013-1-29,62.2,50.2,40.6,42.9,39.1,34.3,80,67,47,30.35,30.23,8,1,11,0.00
2013-1-30,66.4,50.6,39.0,47.8,40.8,34.9,88,71,49,30.33,30.21,6,0,6,0.00
2013-1-31,66.0,49.4,37.2,48.9,40.8,33.4,89,74,53,30.29,30.14,5,0,5,0.00
2013-2-1,66.9,50.6,37.0,50.3,41.6,33.4,90,73,54,30.18,30.05,4,0,4,0.00
2013-2-2,58.8,48.5,42.6,49.3,42.9,38.3,88,81,70,30.27,30.16,7,0,7,0.00
2013-2-3,60.6,49.3,41.2,49.2,43.3,37.3,90,80,65,30.21,30.08,6,0,6,0.00
2013-2-4,55.9,46.0,39.9,48.1,41.6,36.8,91,85,74,30.14,30.01,7,0,7,0.24
2013-2-5,59.5,49.5,43.0,48.8,42.9,37.7,88,79,62,30.13,29.99,8,1,11,0.62
2013-2-6,60.1,46.5,36.1,45.2,38.6,32.6,90,75,55,30.16,30.03,9,1,9,0.00
2013-2-7,56.1,47.5,39.7,45.3,39.6,35.3,91,75,50,30.12,29.95,12,2,17,0.16
2013-2-8,58.8,45.5,35.4,40.0,35.4,32.4,91,70,40,29.98,29.87,10,2,14,0.02
2013-2-9,60.4,46.2,35.1,37.1,32.0,27.8,83,60,34,30.07,29.95,8,1,8,0.00
2013-2-10,63.7,45.4,32.7,45.0,34.2,27.5,83,66,42,30.09,29.95,9,1,9,0.00
2013-2-11,67.3,49.9,36.5,39.6,35.4,30.6,81,61,32,30.19,30.05,9,1,11,0.00
2013-2-12,61.9,47.2,34.9,45.3,38.6,31.1,88,73,53,30.32,30.19,7,1,7,0.00
2013-2-13,65.5,48.2,35.8,47.3,39.1,32.2,90,72,49,30.31,30.14,10,1,10,0.00
2013-2-14,70.0,51.2,37.8,50.5,41.2,34.2,91,71,46,30.21,30.09,7,1,8,0.00
2013-2-15,71.2,52.8,38.5,49.0,41.5,34.3,89,68,44,30.23,30.14,5,0,8,0.00
2013-2-16,69.6,52.2,41.0,48.1,41.5,36.4,85,69,40,30.22,29.99,6,0,6,0.00
2013-2-17,63.9,48.2,37.2,46.5,38.7,33.4,88,71,45,30.02,29.91,8,1,8,0.00
2013-2-18,55.0,45.6,37.9,43.0,38.4,33.4,88,76,62,29.99,29.86,6,1,7,0.00
2013-2-19,49.8,43.2,36.5,42.0,36.0,31.4,90,76,54,29.92,29.69,15,2,15,0.20
2013-2-20,59.7,44.8,31.6,38.0,33.8,29.3,94,68,40,30.03,29.82,14,2,17,0.00
2013-2-21,63.1,49.4,37.0,38.3,34.9,31.0,82,60,32,30.13,30.01,12,2,12,0.00
2013-2-22,64.0,49.4,37.6,43.8,38.3,32.3,84,67,41,30.21,30.11,9,1,10,0.00
2013-2-23,60.4,49.7,41.5,40.6,34.8,31.1,85,59,34,30.23,30.11,17,2,17,0.00
2013-2-24,66.9,50.3,37.9,37.2,32.7,29.4,73,54,27,30.24,30.09,10,2,11,0.00
2013-2-25,69.1,50.1,37.2,42.7,36.0,30.3,83,62,25,30.25,30.09,12,1,12,0.00
2013-2-26,71.4,50.9,36.3,38.9,33.9,29.9,79,56,26,30.18,30.07,8,1,8,0.00
2013-2-27,69.6,51.5,36.7,44.3,37.5,31.4,83,62,34,30.32,30.17,8,1,8,0.00
2013-2-28,70.5,56.5,46.8,54.4,47.2,41.6,83,72,56,30.40,30.30,8,1,8,0.02
2013-3-1,74.1,56.4,43.3,53.5,46.2,39.7,89,71,46,30.39,30.17,8,1,8,0.00
2013-3-2,70.0,56.8,46.9,54.2,47.5,42.2,85,72,54,30.20,29.99,6,1,6,0.00
2013-3-3,66.7,54.5,48.4,51.6,46.2,42.7,84,74,56,30.05,29.95,10,2,13,0.00
2013-3-4,57.9,49.0,41.5,47.2,42.8,37.3,88,80,63,30.11,30.00,8,1,8,0.00
2013-3-5,54.0,46.9,37.9,45.7,40.9,34.8,91,80,67,30.04,29.74,14,2,14,0.31
2013-3-6,57.0,49.4,41.9,46.6,41.7,37.2,91,76,54,30.02,29.75,16,2,18,0.08
2013-3-7,56.7,46.5,38.1,42.3,38.1,35.4,92,74,50,29.96,29.82,5,0,5,0.00
2013-3-8,64.9,49.8,37.2,45.3,37.6,34.2,91,66,36,30.00,29.78,18,2,18,0.00
2013-3-9,70.3,53.1,38.8,46.4,39.6,34.3,86,63,31,30.27,30.00,12,2,12,0.00
2013-3-10,71.2,52.9,39.0,47.1,40.4,35.2,88,66,34,30.31,30.17,9,1,9,0.00
2013-3-11,71.8,53.2,39.4,48.2,42.2,36.1,90,69,39,30.22,30.04,6,1,7,0.00
2013-3-12,74.1,55.3,42.1,56.0,45.7,38.8,90,72,49,30.13,30.01,7,1,7,0.00
2013-3-13,81.0,58.0,42.6,58.1,47.5,39.3,90,71,43,30.12,29.99,5,1,6,0.00
2013-3-14,71.4,56.7,46.9,55.9,47.2,42.7,86,72,51,30.12,30.03,6,0,6,0.00
2013-3-15,73.9,56.4,45.0,54.5,46.6,40.7,88,72,47,30.10,29.96,8,1,8,0.00
2013-3-16,75.9,57.8,43.9,50.8,42.7,37.2,89,62,25,30.07,29.94,17,3,17,0.00
2013-3-17,70.0,55.6,45.7,45.7,40.5,37.5,75,58,32,30.11,29.97,9,1,10,0.00
2013-3-18,68.5,53.3,41.7,47.4,41.8,37.2,85,67,43,30.07,29.96,8,1,8,0.00
2013-3-19,61.2,52.3,45.9,46.6,43.1,40.1,87,72,53,30.09,30.01,6,0,6,0.08
2013-3-20,59.7,52.5,47.5,54.7,48.8,43.7,92,87,79,30.09,30.01,7,1,12,0.45
2013-3-21,68.5,54.3,39.6,47.4,42.8,37.8,97,68,45,30.09,29.95,8,2,9,0.00
2013-3-22,72.3,57.7,41.5,38.5,34.9,32.9,80,45,27,30.09,29.97,11,3,12,0.00
2013-3-23,70.5,53.5,39.4,41.2,37.3,33.8,82,57,31,30.11,29.98,8,1,8,0.00
2013-3-24,70.0,54.0,41.5,48.7,42.4,37.3,87,67,43,30.05,29.91,8,1,9,0.00
2013-3-25,60.4,50.5,43.3,46.8,42.8,39.3,90,76,57,29.99,29.89,8,1,10,0.00
2013-3-26,65.5,52.4,43.2,49.4,44.2,40.7,94,75,52,29.96,29.88,11,1,11,0.00
2013-3-27,61.9,53.2,45.9,51.8,47.0,41.9,88,80,65,29.97,29.90,9,1,11,0.00
2013-3-28,68.2,55.6,48.0,56.7,50.1,45.6,92,82,65,30.04,29.96,6,1,6,0.06
2013-3-29,77.2,59.3,48.9,58.9,51.0,46.7,93,76,43,30.05,29.95,11,1,11,0.02
2013-3-30,65.8,56.9,51.6,55.1,50.5,47.5,90,80,64,30.03,29.94,13,0,13,0.10
2013-3-31,61.2,55.6,51.8,55.7,52.7,50.1,94,90,80,30.02,29.95,6,0,9,0.88
2013-4-1,67.3,55.8,50.2,55.7,51.6,47.0,97,86,64,30.11,30.00,6,0,8,0.00
2013-4-2,67.8,54.6,45.7,56.3,49.1,44.3,96,83,61,30.15,30.03,7,1,10,0.00
2013-4-3,75.9,56.7,48.2,58.9,49.9,46.4,95,80,50,30.10,29.92,9,1,9,0.00
2013-4-4,58.1,54.0,50.2,55.9,51.7,46.6,95,92,85,30.08,29.93,6,1,7,1.14
2013-4-5,64.6,56.8,52.9,54.5,52.2,49.3,96,85,66,30.14,30.06,9,1,9,0.00
2013-4-6,68.4,57.4,52.9,56.0,51.8,48.8,93,83,63,30.14,30.06,14,1,14,0.02
2013-4-7,64.6,55.6,49.8,54.5,49.5,43.8,94,81,58,30.13,29.77,15,2,15,0.09
2013-4-8,72.7,55.6,45.1,46.2,38.3,34.4,89,56,30,30.01,29.76,18,6,20,0.00
2013-4-9,84.2,61.8,47.3,44.0,39.8,31.9,73,50,17,30.09,29.97,12,2,12,0.00
2013-4-10,88.2,68.3,52.7,58.8,47.7,40.9,73,50,26,30.13,29.95,14,3,20,0.00
2013-4-11,82.6,63.4,51.1,52.3,45.8,42.4,74,55,31,30.01,29.76,11,2,12,0.00
2013-4-12,75.4,58.9,46.9,53.1,45.6,41.6,83,63,40,29.87,29.76,8,1,20,0.00
2013-4-13,75.9,59.2,46.6,51.5,42.6,33.1,88,58,32,29.85,29.74,20,3,20,0.00
2013-4-14,72.9,57.4,46.2,44.4,36.7,27.7,73,48,28,29.89,29.78,22,4,22,0.00
2013-4-15,63.1,52.2,42.8,43.1,34.7,28.3,89,56,30,29.93,29.80,19,5,21,0.00
2013-4-16,73.0,55.4,40.3,34.8,31.4,26.5,76,44,19,30.14,29.93,11,2,13,0.00
2013-4-17,79.3,59.7,45.3,37.4,31.0,25.9,61,38,16,30.24,30.11,9,1,13,0.00
2013-4-18,79.5,62.1,46.6,43.9,38.8,33.3,66,45,25,30.22,30.11,9,1,11,0.00
2013-4-19,84.9,63.4,47.8,55.5,46.3,40.6,81,57,30,30.19,30.00,17,2,17,0.02
2013-4-20,81.3,65.0,51.6,50.9,44.2,39.7,67,49,29,30.07,29.90,14,1,14,0.00
2013-4-21,85.6,66.0,48.7,55.9,47.2,42.1,84,55,28,29.98,29.84,8,1,8,0.00
2013-4-22,90.1,69.4,52.7,54.3,47.5,43.2,75,50,20,29.91,29.78,12,1,12,0.00
2013-4-23,82.9,67.0,50.5,49.3,36.0,18.0,74,36,16,29.86,29.79,8,2,10,0.00
2013-4-24,66.0,55.1,48.4,49.2,45.0,42.4,84,70,51,29.92,29.79,10,2,10,0.00
2013-4-25,69.4,56.8,50.7,50.5,46.4,44.2,81,69,49,30.09,29.92,8,1,10,0.00
2013-4-26,70.7,56.5,50.2,54.0,48.0,44.9,87,75,52,30.20,30.08,8,1,8,0.00
2013-4-27,75.4,58.2,49.1,56.2,49.2,45.6,95,75,48,30.20,30.02,7,1,7,0.00
2013-4-28,88.2,64.6,46.0,57.9,50.9,44.6,95,66,35,30.03,29.81,6,1,7,0.00
2013-4-29,90.9,72.2,55.9,58.4,50.4,44.3,73,49,29,29.85,29.69,62,2,62,0.00
2013-4-30,91.8,70.9,55.4,46.0,39.7,17.5,63,37,13,29.81,29.70,13,2,13,0.00
2013-5-1,91.2,73.4,59.7,44.9,25.6,9.8,35,18,11,30.02,29.79,9,1,20,0.00
2013-5-2,93.6,69.7,50.4,46.9,36.2,28.0,58,33,13,30.10,29.99,11,1,12,0.00
2013-5-3,91.2,69.5,52.0,51.0,39.1,27.4,51,35,21,30.01,29.73,6,0,12,0.00
2013-5-4,88.3,66.1,52.0,53.3,45.6,37.7,72,51,25,29.74,29.50,11,1,13,0.00
2013-5-5,64.9,59.3,56.1,49.4,47.5,46.5,73,65,56,29.78,29.57,7,1,9,0.00
2013-5-6,69.1,60.5,52.9,51.8,49.3,47.4,83,67,51,29.92,29.77,13,1,13,0.00
2013-5-7,76.3,62.7,54.0,54.6,51.2,48.8,85,68,43,30.00,29.91,11,2,11,0.00
2013-5-8,69.1,56.9,52.0,53.5,50.1,47.6,92,79,56,30.09,29.98,7,1,12,0.00
2013-5-9,70.5,58.8,51.6,53.7,50.1,47.6,90,75,52,30.12,30.02,11,2,11,0.00
2013-5-10,74.5,60.4,52.5,57.5,51.2,48.1,89,74,51,30.13,30.03,8,1,11,0.02
2013-5-11,83.8,63.0,50.7,60.9,52.3,47.4,95,71,44,30.09,29.98,7,1,7,0.00
2013-5-12,80.4,62.9,49.5,60.9,52.1,47.1,95,71,43,30.10,29.95,7,1,12,0.00
2013-5-13,85.6,65.8,51.6,61.6,52.5,46.5,93,66,40,30.03,29.86,8,1,8,0.00
2013-5-14,85.8,66.8,53.4,55.2,48.9,41.6,78,55,34,29.91,29.80,8,1,9,0.00
2013-5-15,80.8,63.1,48.9,52.6,46.2,42.0,83,57,37,29.98,29.90,8,1,8,0.00
2013-5-16,74.3,63.6,55.8,53.3,47.9,43.3,73,58,39,29.96,29.87,10,2,10,0.00
2013-5-17,77.4,60.3,48.0,48.6,45.1,41.1,90,61,33,30.01,29.91,9,1,10,0.00
2013-5-18,84.0,64.4,47.7,51.8,46.3,40.6,90,56,31,30.08,29.98,14,3,16,0.00
2013-5-19,88.7,67.3,53.6,47.9,44.5,40.8,69,47,24,30.09,29.90,10,2,10,0.00
2013-5-20,87.8,69.5,55.0,50.9,45.3,41.7,69,46,21,29.94,29.83,11,2,11,0.00
2013-5-21,76.8,61.8,52.0,46.4,40.9,26.5,80,50,28,29.94,29.84,20,5,22,0.00
2013-5-22,74.8,58.4,47.1,37.9,26.4,18.1,47,30,19,30.00,29.83,20,4,20,0.02
2013-5-23,80.4,60.8,47.8,43.7,37.1,30.8,68,44,26,29.95,29.86,9,2,9,0.00
2013-5-24,78.1,61.3,48.6,45.0,39.7,32.3,73,47,28,29.95,29.84,9,1,9,0.00
2013-5-25,76.3,61.0,47.8,47.2,43.2,38.4,84,55,33,29.97,29.88,9,2,13,0.00
2013-5-26,77.9,62.8,52.0,52.7,47.8,42.9,88,61,37,30.05,29.96,13,2,13,0.00
2013-5-27,64.0,57.7,51.3,56.2,51.2,44.9,96,79,67,30.06,29.94,12,1,12,0.22
2013-5-28,78.4,63.5,56.3,58.1,54.9,48.1,99,77,45,29.95,29.85,10,1,10,0.02
2013-5-29,84.4,66.6,57.4,56.2,51.0,42.7,84,60,27,29.91,29.80,13,2,13,0.00
2013-5-30,86.7,66.6,50.4,52.7,44.8,37.0,89,50,25,29.93,29.84,13,2,13,0.00
2013-5-31,92.1,71.3,55.9,54.0,46.1,37.5,64,43,26,29.96,29.83,9,1,9,0.00
2013-6-1,96.1,74.6,57.0,58.6,48.3,41.1,67,42,25,29.87,29.70,13,1,13,0.00
2013-6-2,88.3,71.7,58.5,54.0,46.9,40.5,59,42,29,29.71,29.57,11,1,11,0.00
2013-6-3,75.2,61.7,54.0,52.3,49.3,44.6,83,65,44,29.83,29.64,10,2,14,0.00
2013-6-4,71.4,60.1,55.8,52.7,51.2,48.6,87,74,49,29.93,29.81,8,2,8,0.00
2013-6-5,73.8,61.4,54.3,54.2,51.8,48.6,94,73,46,29.95,29.86,9,2,9,0.00
2013-6-6,77.4,61.8,53.2,56.7,52.5,48.0,97,74,44,29.91,29.79,9,1,9,0.00
2013-6-7,96.6,69.9,53.4,62.9,55.6,50.4,98,67,31,29.84,29.64,6,1,6,0.00
2013-6-8,89.4,70.5,57.9,62.9,54.1,48.2,82,59,37,29.79,29.63,8,1,10,0.00
2013-6-9,66.6,60.2,56.8,55.7,54.2,52.3,94,81,62,29.85,29.78,9,2,10,0.00
2013-6-10,62.2,59.0,56.5,59.4,56.3,53.9,99,91,77,29.91,29.74,5,1,7,0.10
2013-6-11,83.3,65.9,54.9,58.8,54.3,46.0,98,70,39,29.93,29.81,7,1,9,0.00
2013-6-12,88.0,67.1,51.3,51.5,44.2,30.8,96,52,17,29.92,29.83,14,2,15,0.00
2013-6-13,89.8,69.0,53.4,47.8,38.8,29.7,57,35,22,30.03,29.92,16,2,16,0.00
2013-6-14,88.5,71.3,58.6,49.2,42.0,37.2,55,36,21,29.93,29.74,13,2,13,0.00
2013-6-15,79.9,64.4,52.3,53.0,47.8,41.7,87,58,34,29.92,29.77,12,1,12,0.00
2013-6-16,92.1,68.8,52.3,55.0,49.0,38.9,95,56,24,30.01,29.92,10,1,10,0.00
2013-6-17,82.6,67.6,54.5,54.8,48.8,38.8,80,53,37,30.03,29.92,12,2,12,0.00
2013-6-18,76.3,64.8,54.3,52.4,45.7,35.8,93,54,29,29.96,29.86,17,3,17,0.00
2013-6-19,85.8,66.6,53.2,49.0,42.6,35.5,81,46,24,30.01,29.90,10,2,13,0.00
2013-6-20,90.1,69.3,54.3,48.7,41.7,33.2,74,40,20,29.95,29.83,11,2,13,0.00
2013-6-21,88.9,70.4,54.5,51.0,44.7,35.6,76,43,23,29.92,29.81,10,1,13,0.00
2013-6-22,92.1,72.9,57.0,52.3,45.7,39.3,67,41,21,29.87,29.74,10,2,10,0.00
2013-6-23,69.6,64.6,59.9,58.6,55.0,44.6,91,72,42,29.80,29.75,11,1,11,0.00
2013-6-24,64.2,60.8,58.6,60.8,59.1,56.8,99,94,87,29.84,29.73,4,1,6,0.21
2013-6-25,65.1,62.5,60.1,64.8,62.3,59.8,99,99,99,29.92,29.82,5,0,5,1.43
2013-6-26,87.6,70.0,61.9,67.9,63.5,59.3,99,82,49,30.00,29.91,8,1,8,0.04
2013-6-27,95.5,73.6,59.7,66.9,61.5,54.3,99,71,37,30.03,29.92,20,1,30,0.00
2013-6-28,102.4,79.0,61.9,68.1,62.3,55.1,94,61,31,29.96,29.80,8,1,8,0.00
2013-6-29,104.9,81.8,64.2,66.1,59.5,53.2,78,50,27,29.84,29.71,10,1,12,0.00
2013-6-30,97.5,77.4,62.4,63.7,55.9,49.7,71,50,32,29.78,29.67,8,1,8,0.00
2013-7-1,97.7,76.3,60.6,65.8,57.2,49.7,82,55,32,29.77,29.71,5,1,7,0.00
2013-7-2,91.6,73.8,62.4,64.3,56.1,51.2,77,55,38,29.87,29.74,8,1,11,0.00
2013-7-3,90.7,72.2,60.6,63.6,57.8,51.8,91,64,37,29.86,29.69,8,1,8,0.00
2013-7-4,100.8,78.9,65.1,64.0,55.6,36.8,77,50,20,29.75,29.58,20,2,63,0.00
2013-7-5,84.6,70.8,59.0,55.8,47.4,35.1,69,45,28,29.69,29.61,11,1,11,0.00
2013-7-6,82.0,66.5,57.7,56.0,52.7,46.5,87,64,38,29.74,29.66,8,1,8,0.00
2013-7-7,81.7,65.0,56.8,57.2,54.7,47.5,99,73,38,29.82,29.73,8,1,8,0.00
2013-7-8,85.1,66.0,57.0,57.8,55.5,47.2,99,73,37,29.92,29.81,8,1,11,0.00
2013-7-9,94.5,70.5,57.0,59.7,55.5,44.5,99,66,29,29.98,29.85,6,1,8,0.00
2013-7-10,79.9,64.8,56.5,57.2,52.9,43.2,99,70,33,29.94,29.83,6,1,9,0.00
2013-7-11,77.2,63.4,56.5,58.4,54.3,45.4,99,77,37,29.91,29.80,8,1,12,0.00
2013-7-12,80.4,65.0,57.9,59.3,54.8,45.3,99,74,36,29.90,29.79,8,1,10,0.00
2013-7-13,83.1,66.9,56.8,60.2,54.2,42.5,99,70,29,29.90,29.83,13,1,13,0.00
2013-7-14,81.0,65.4,58.6,59.6,54.9,44.0,99,74,33,29.95,29.83,7,1,12,0.00
2013-7-15,73.9,62.8,58.3,60.7,56.3,46.1,99,83,40,29.88,29.78,10,1,11,0.02
2013-7-16,71.2,63.3,59.5,60.9,58.4,53.6,99,86,56,29.97,29.82,7,1,7,0.00
2013-7-17,81.7,66.7,60.1,62.9,57.8,47.9,99,78,37,30.05,29.96,9,1,9,0.00
2013-7-18,83.1,67.9,60.6,63.2,57.0,45.4,99,74,34,30.00,29.86,8,1,8,0.00
2013-7-19,85.3,68.7,60.6,63.0,56.6,42.9,99,72,31,29.90,29.75,13,1,17,0.00
2013-7-20,85.6,68.8,60.8,63.0,56.6,41.9,99,71,31,29.80,29.66,8,1,17,0.00
2013-7-21,82.2,68.3,61.5,62.9,55.8,41.4,99,70,30,29.84,29.71,7,1,9,0.00
2013-7-22,83.8,69.2,62.4,63.9,57.9,50.5,99,72,35,29.91,29.83,8,1,19,0.00
2013-7-23,78.6,69.5,64.0,62.3,56.5,48.6,93,66,37,29.94,29.87,7,1,7,0.00
2013-7-24,84.6,70.5,63.1,65.0,56.4,43.7,99,68,29,29.94,29.83,9,1,11,0.00
2013-7-25,79.2,68.3,63.3,65.2,57.0,42.1,99,73,31,29.97,29.85,8,1,8,0.00
2013-7-26,78.4,68.8,64.8,67.9,60.0,43.3,99,79,32,30.05,29.94,7,1,10,0.00
2013-7-27,79.5,68.8,65.1,67.9,61.1,43.6,99,81,32,29.98,29.81,6,1,9,0.00
2013-7-28,75.0,69.2,65.5,70.0,61.9,41.9,99,82,32,29.83,29.75,8,1,10,0.00
2013-7-29,73.6,69.2,66.4,69.3,62.6,48.7,99,83,43,29.97,29.79,8,1,14,0.00
2013-7-30,76.6,70.8,66.9,72.0,63.6,42.2,99,83,30,30.07,29.98,8,1,9,0.00
2013-7-31,80.8,72.6,68.4,72.7,60.8,39.6,99,73,26,30.05,29.90,11,1,11,0.00
2013-8-1,82.9,74.7,68.7,77.4,56.4,34.8,99,63,20,30.00,29.86,10,1,12,0.00
2013-8-2,86.7,75.4,68.5,76.5,54.5,29.2,99,59,16,29.92,29.80,8,1,13,0.00
2013-8-3,79.5,73.4,67.8,76.5,61.2,34.1,99,73,22,29.92,29.84,10,1,10,0.00
2013-8-4,82.0,75.3,69.1,81.7,67.2,38.4,99,81,26,29.96,29.89,12,2,12,0.00
2013-8-5,86.2,77.4,69.6,85.9,67.6,33.7,99,78,22,29.98,29.88,8,1,8,0.00
2013-8-6,85.6,77.2,70.5,84.2,68.7,43.3,99,80,33,30.00,29.93,9,1,9,0.00
2013-8-7,80.2,74.9,71.2,79.7,69.1,50.8,99,84,42,30.05,29.97,11,1,11,0.00
2013-8-8,83.8,76.6,71.8,83.5,67.8,40.3,99,79,28,29.98,29.88,9,2,12,0.00
2013-8-9,88.7,80.1,72.3,88.4,73.1,44.3,99,83,33,29.94,29.86,15,1,15,0.00
2013-8-10,83.1,78.7,72.3,82.8,70.6,45.2,99,81,31,30.00,29.92,9,1,9,0.00
2013-8-11,86.2,80.5,72.3,85.9,69.6,39.0,99,76,24,29.98,29.85,10,1,10,0.00
2013-8-12,95.7,80.7,57.0,95.6,67.4,27.8,99,71,14,29.94,29.86,8,1,8,0.00
2013-8-13,83.8,62.4,55.9,65.9,44.4,37.6,55,52,50,29.94,29.83,6,0,6,0.00
2013-8-14,83.7,63.7,54.3,65.8,36.1,0.0,55,42,50,29.91,29.79,4,0,4,0.00
2013-8-15,89.4,71.7,59.2,0.0,0.0,0.0,0,0,100,29.88,29.82,14,1,14,0.00
2013-8-16,88.3,66.6,60.1,69.9,24.5,0.0,55,24,50,29.92,29.85,6,1,6,0.00
2013-8-17,87.4,70.6,56.8,0.0,0.0,0.0,0,0,100,29.92,29.75,9,1,13,0.00
2013-8-18,96.6,74.8,58.8,0.0,0.0,0.0,0,0,100,29.83,29.68,7,1,7,0.00
2013-8-19,90.1,72.3,61.3,0.0,0.0,0.0,0,0,100,29.83,29.72,7,1,10,0.00
2013-8-20,81.7,66.9,60.6,0.0,0.0,0.0,0,0,100,29.84,29.75,9,1,9,0.00
2013-8-21,79.0,65.3,57.7,0.0,0.0,0.0,0,0,100,29.89,29.80,10,1,11,0.00
2013-8-22,77.9,63.4,57.0,0.0,0.0,0.0,0,0,100,29.92,29.83,12,1,12,0.00
2013-8-23,80.8,66.4,57.9,0.0,0.0,0.0,0,0,100,29.87,29.72,9,1,9,0.00
2013-8-24,82.8,66.4,54.7,0.0,0.0,0.0,0,0,100,29.82,29.75,9,1,10,0.00
2013-8-25,82.0,69.3,61.0,0.0,0.0,0.0,0,0,100,29.88,29.80,9,1,10,0.00
2013-8-26,85.1,69.3,61.0,0.0,0.0,0.0,0,0,100,29.95,29.80,10,1,15,0.00
2013-8-27,88.7,68.6,55.0,0.0,0.0,0.0,0,0,100,29.83,29.73,10,1,18,0.00
2013-8-28,85.6,68.7,58.3,0.0,0.0,0.0,0,0,100,29.87,29.78,10,1,10,0.00
2013-8-29,87.4,70.9,62.4,0.0,0.0,0.0,0,0,100,29.99,29.87,8,1,10,0.00
2013-8-30,94.1,73.5,59.7,0.0,0.0,0.0,0,0,100,29.96,29.82,11,1,11,0.00
2013-8-31,84.7,68.0,57.0,0.0,0.0,0.0,0,0,100,29.91,29.80,8,1,10,0.00
2013-9-1,82.9,68.0,57.9,0.0,0.0,0.0,0,0,100,29.89,29.79,8,1,10,0.00
2013-9-2,85.6,70.6,59.5,0.0,0.0,0.0,0,0,100,29.89,29.79,8,1,8,0.00
2013-9-3,85.5,68.7,55.9,0.0,0.0,0.0,0,0,100,29.92,29.82,10,1,11,0.00
2013-9-4,88.0,69.2,55.6,0.0,0.0,0.0,0,0,100,29.96,29.83,7,1,9,0.00
2013-9-5,89.8,70.1,55.6,0.0,0.0,0.0,0,0,100,29.93,29.83,10,1,10,0.00
2013-9-6,95.2,73.6,56.3,0.0,0.0,0.0,0,0,100,29.92,29.75,9,1,9,0.00
2013-9-7,95.2,76.3,57.7,0.0,0.0,0.0,0,0,100,29.82,29.72,10,1,10,0.00
2013-9-8,90.0,70.4,56.5,0.0,0.0,0.0,0,0,100,29.83,29.68,7,1,7,0.00
2013-9-9,93.9,68.9,55.2,0.0,0.0,0.0,0,0,100,29.76,29.62,8,1,8,0.00
2013-9-10,75.0,64.4,59.5,0.0,0.0,0.0,0,0,100,29.84,29.67,10,1,11,0.00
2013-9-11,71.4,65.6,62.6,0.0,0.0,0.0,0,0,100,29.94,29.84,7,1,7,0.00
2013-9-12,80.8,67.1,60.4,0.0,0.0,0.0,0,0,100,29.92,29.80,11,1,11,0.00
2013-9-13,81.3,65.8,57.4,0.0,0.0,0.0,0,0,100,29.84,29.67,10,1,12,0.00
2013-9-14,80.6,64.7,57.0,0.0,0.0,0.0,0,0,100,29.77,29.64,12,1,12,0.00
2013-9-15,82.2,65.7,55.6,0.0,0.0,0.0,0,0,100,29.80,29.70,7,1,9,0.00
2013-9-16,87.4,67.9,56.5,0.0,0.0,0.0,0,0,100,29.84,29.67,11,1,11,0.00
2013-9-17,81.7,67.1,54.0,0.0,0.0,0.0,0,0,100,29.82,29.73,15,3,16,0.00
2013-9-18,88.3,70.1,57.0,0.0,0.0,0.0,0,0,100,29.85,29.72,11,1,12,0.00
2013-9-19,90.3,67.9,52.3,0.0,0.0,0.0,0,0,100,29.80,29.67,9,1,29,0.00
2013-9-20,78.4,62.7,49.8,0.0,0.0,0.0,0,0,100,29.79,29.71,11,1,11,0.00
2013-9-21,71.2,63.8,56.5,54.2,23.9,-31.1,55,28,50,29.83,29.72,17,1,17,0.77
2013-9-22,77.5,61.3,50.7,60.0,43.5,32.3,55,52,49,29.94,29.83,7,1,10,0.00
2013-9-23,83.5,63.7,53.8,65.6,45.8,36.0,55,52,50,29.96,29.83,7,0,7,0.00
2013-9-24,73.9,61.4,56.1,56.7,31.1,0.0,55,37,50,29.91,29.81,17,2,17,0.00
2013-9-25,74.8,62.2,51.8,0.0,0.0,0.0,0,0,100,29.88,29.74,17,4,17,0.00
2013-9-26,81.0,62.9,49.8,0.0,0.0,0.0,0,0,100,29.93,29.78,11,1,11,0.00
2013-9-27,81.9,64.6,50.2,0.0,0.0,0.0,0,0,100,30.04,29.94,8,1,13,0.00
2013-9-28,82.0,63.7,49.6,0.0,0.0,0.0,0,0,100,30.03,29.93,8,1,9,0.00
2013-9-29,72.3,63.4,56.1,0.0,0.0,0.0,0,0,100,30.04,29.98,10,1,11,0.00
2013-9-30,74.1,65.3,57.0,0.0,0.0,0.0,0,0,100,29.99,29.90,8,1,8,0.00
2013-10-1,82.0,62.2,48.4,0.0,0.0,0.0,0,0,100,29.96,29.83,7,1,10,0.00
2013-10-2,80.4,63.7,53.2,0.0,0.0,0.0,0,0,100,29.96,29.85,11,2,12,0.00
2013-10-3,79.5,63.0,46.6,0.0,0.0,0.0,0,0,100,30.04,29.90,14,2,14,0.00
2013-10-4,86.4,70.7,59.9,0.0,0.0,0.0,0,0,100,30.02,29.94,20,1,20,0.00
2013-10-5,87.1,66.8,50.0,0.0,0.0,0.0,0,0,100,30.14,30.01,18,1,18,0.00
2013-10-6,84.6,63.6,47.5,0.0,0.0,0.0,0,0,100,30.08,29.93,17,0,24,0.00
2013-10-7,84.0,63.7,48.2,0.0,0.0,0.0,0,0,100,29.95,29.79,6,0,6,0.00
2013-10-8,79.0,61.2,47.8,0.0,0.0,0.0,0,0,100,29.86,29.65,9,1,9,0.00
2013-10-9,76.5,62.0,50.5,0.0,0.0,0.0,0,0,100,29.70,29.56,9,1,9,0.00
2013-10-10,73.0,58.7,49.8,0.0,0.0,0.0,0,0,100,29.96,29.70,8,1,10,0.00
2013-10-11,69.4,55.2,48.7,0.0,0.0,0.0,0,0,100,30.06,29.91,8,1,8,0.00
2013-10-12,71.6,55.6,43.2,0.0,0.0,0.0,0,0,100,29.97,29.82,9,0,9,0.00
2013-10-13,76.3,59.4,46.2,0.0,0.0,0.0,0,0,100,30.01,29.87,10,1,10,0.00
2013-10-14,80.1,59.5,44.8,0.0,0.0,0.0,0,0,100,30.07,29.92,6,0,6,0.00
2013-10-15,83.5,62.0,44.6,0.0,0.0,0.0,0,0,100,30.00,29.87,7,0,22,0.00
2013-10-16,82.8,61.1,44.4,0.0,0.0,0.0,0,0,100,30.04,29.94,6,0,6,0.00
2013-10-17,82.6,61.1,45.7,0.0,0.0,0.0,0,0,100,30.04,29.88,6,0,14,0.00
2013-10-18,79.2,59.1,45.1,0.0,0.0,0.0,0,0,100,30.01,29.91,3,0,3,0.00
2013-10-19,83.3,61.7,43.7,0.0,0.0,0.0,0,0,100,30.03,29.91,4,0,4,0.00
2013-10-20,78.1,57.1,44.4,0.0,0.0,0.0,0,0,100,29.98,29.84,10,0,10,0.00
2013-10-21,73.6,57.1,48.6,0.0,0.0,0.0,0,0,100,29.96,29.84,4,0,6,0.00
2013-10-22,76.8,57.0,48.0,0.0,0.0,0.0,0,0,100,29.98,29.85,5,0,5,0.00
2013-10-23,73.2,55.0,48.2,0.0,0.0,0.0,0,0,100,29.93,29.83,6,0,7,0.00
2013-10-24,66.0,53.5,48.4,0.0,0.0,0.0,0,0,100,30.06,29.91,7,1,7,0.00
2013-10-25,70.3,54.3,43.5,0.0,0.0,0.0,0,0,100,30.13,30.01,4,0,4,0.00
2013-10-26,79.9,57.8,43.7,0.0,0.0,0.0,0,0,100,30.10,29.95,6,0,6,0.00
2013-10-27,64.2,52.8,47.8,0.0,0.0,0.0,0,0,100,29.98,29.59,8,1,9,0.00
2013-10-28,66.4,53.6,42.6,0.0,0.0,0.0,0,0,100,29.78,29.62,5,1,7,0.00
2013-10-29,66.6,53.7,45.1,0.0,0.0,0.0,0,0,100,30.02,29.78,7,1,7,0.00
2013-10-30,67.6,52.6,41.7,0.0,0.0,0.0,0,0,100,30.13,30.01,8,0,8,0.00
2013-10-31,73.8,54.9,42.3,0.0,0.0,0.0,0,0,100,30.15,30.01,6,0,6,0.00
2013-11-1,77.4,57.6,44.2,0.0,0.0,0.0,0,0,100,30.12,29.96,8,0,8,0.00
2013-11-2,73.2,57.2,44.8,0.0,0.0,0.0,0,0,100,29.99,29.83,10,1,10,0.00
2013-11-3,65.3,53.5,43.9,0.0,0.0,0.0,0,0,100,30.03,29.88,11,2,13,0.00
2013-11-4,72.3,55.3,42.1,0.0,0.0,0.0,0,0,100,30.06,29.90,9,1,10,0.00
2013-11-5,75.6,58.4,46.9,0.0,0.0,0.0,0,0,100,30.18,30.04,6,0,9,0.00
2013-11-6,74.7,58.6,47.1,0.0,0.0,0.0,0,0,100,30.24,30.11,4,0,11,0.00
2013-11-7,74.8,59.5,50.2,0.0,0.0,0.0,0,0,100,30.14,30.00,22,1,22,0.00
2013-11-8,74.8,56.1,45.5,0.0,0.0,0.0,0,0,100,30.05,29.89,7,1,11,0.00
2013-11-9,73.9,54.0,40.6,0.0,0.0,0.0,0,0,100,30.01,29.90,8,0,8,0.00
2013-11-10,66.0,53.3,45.7,0.0,0.0,0.0,0,0,100,30.07,29.97,8,0,8,0.00
2013-11-11,65.5,55.1,46.4,0.0,0.0,0.0,0,0,100,30.14,30.01,3,0,4,0.00
2013-11-12,70.5,59.2,51.6,0.0,0.0,0.0,0,0,100,30.23,30.09,8,0,8,0.00
2013-11-13,76.8,57.4,46.0,0.0,0.0,0.0,0,0,100,30.21,30.02,6,0,7,0.00
2013-11-14,64.2,53.8,47.8,0.0,0.0,0.0,0,0,100,30.06,29.83,4,0,5,0.00
2013-11-15,67.3,54.1,44.8,0.0,0.0,0.0,0,0,100,29.84,29.65,6,1,7,0.00
2013-11-16,67.6,52.9,40.8,0.0,0.0,0.0,0,0,100,29.87,29.72,16,2,16,0.00
2013-11-17,62.4,50.4,41.4,0.0,0.0,0.0,0,0,100,30.04,29.87,5,0,5,0.00
2013-11-18,58.8,49.4,40.6,0.0,0.0,0.0,0,0,100,30.11,30.02,6,1,6,0.00
2013-11-19,56.1,53.9,51.4,0.0,0.0,0.0,0,0,100,30.05,29.87,0,0,0,0.65
2013-11-20,59.7,56.1,51.6,0.0,0.0,0.0,0,0,100,29.87,29.78,4,0,4,0.47
2013-11-21,63.3,55.7,50.7,0.0,0.0,0.0,0,0,100,29.92,29.84,16,2,16,0.00
2013-11-22,73.9,63.1,52.5,0.0,0.0,0.0,0,0,100,29.96,29.81,10,2,21,0.00
2013-11-23,67.5,57.5,43.9,0.0,0.0,0.0,0,0,100,30.07,29.88,11,1,11,0.00
2013-11-24,64.9,48.3,36.9,0.0,0.0,0.0,0,0,100,30.23,30.06,6,0,8,0.00
2013-11-25,63.3,48.8,37.6,0.0,0.0,0.0,0,0,100,30.32,30.20,4,0,4,0.00
2013-11-26,62.2,49.4,39.9,0.0,0.0,0.0,0,0,100,30.25,30.01,4,0,4,0.00
2013-11-27,68.0,50.9,39.0,0.0,0.0,0.0,0,0,100,30.01,29.79,4,0,4,0.00
2013-11-28,68.2,51.7,41.2,0.0,0.0,0.0,0,0,100,30.04,29.84,3,0,5,0.00
2013-11-29,67.6,51.6,40.3,0.0,0.0,0.0,0,0,100,30.19,30.04,4,0,4,0.00
2013-11-30,67.6,52.4,43.3,0.0,0.0,0.0,0,0,100,30.26,30.14,3,0,4,0.00
2013-12-1,69.1,52.5,40.8,0.0,0.0,0.0,0,0,100,30.32,30.17,6,0,6,0.00
2013-12-2,65.7,52.4,40.6,0.0,0.0,0.0,0,0,100,30.20,29.91,13,1,17,0.00
2013-12-3,57.4,50.3,40.5,0.0,0.0,0.0,0,0,100,29.93,29.79,15,3,15,0.00
2013-12-4,53.6,42.1,32.9,0.0,0.0,0.0,0,0,100,30.06,29.92,6,0,6,0.00
2013-12-5,51.1,37.9,28.0,0.0,0.0,0.0,0,0,100,30.11,30.03,7,0,7,0.00
2013-12-6,47.7,38.6,28.0,0.0,0.0,0.0,0,0,100,30.14,29.85,7,0,7,0.63
2013-12-7,47.3,39.3,31.3,0.0,0.0,0.0,0,0,100,30.23,29.87,15,2,15,0.00
2013-12-8,48.0,35.9,28.6,0.0,0.0,0.0,0,0,100,30.29,30.17,5,0,6,0.00
2013-12-9,50.7,36.0,25.5,0.0,0.0,0.0,0,0,100,30.39,30.27,7,0,7,0.00
2013-12-10,52.9,38.3,27.1,0.0,0.0,0.0,0,0,100,30.39,30.15,4,0,4,0.00
2013-12-11,56.8,40.8,30.0,0.0,0.0,0.0,0,0,100,30.21,30.11,4,0,5,0.00
2013-12-12,57.7,42.1,30.6,0.0,0.0,0.0,0,0,100,30.23,30.10,6,0,6,0.00
2013-12-13,60.6,44.1,32.2,0.0,0.0,0.0,0,0,100,30.29,30.18,4,0,4,0.00
2013-12-14,61.5,45.0,33.8,0.0,0.0,0.0,0,0,100,30.36,30.24,4,0,5,0.02
2013-12-15,60.6,44.5,33.1,0.0,0.0,0.0,0,0,100,30.34,30.18,4,0,6,0.00
2013-12-16,63.5,46.9,35.8,0.0,0.0,0.0,0,0,100,30.21,30.06,3,0,4,0.00
2013-12-17,62.6,47.4,36.9,0.0,0.0,0.0,0,0,100,30.14,29.99,3,0,3,0.00
2013-12-18,59.4,47.2,39.4,0.0,0.0,0.0,0,0,100,29.99,29.71,6,0,6,0.00
2013-12-19,62.4,51.1,41.4,0.0,0.0,0.0,0,0,100,29.90,29.69,9,2,10,0.00
2013-12-20,66.0,50.3,36.7,0.0,0.0,0.0,0,0,100,29.96,29.87,9,1,10,0.00
2013-12-21,66.4,53.9,44.8,0.0,0.0,0.0,0,0,100,30.03,29.91,12,1,12,0.00
2013-12-22,65.8,49.8,39.9,0.0,0.0,0.0,0,0,100,30.24,30.03,4,0,5,0.00
2013-12-23,65.7,49.5,37.9,0.0,0.0,0.0,0,0,100,30.36,30.24,4,0,4,0.00
2013-12-24,67.1,50.8,40.1,0.0,0.0,0.0,0,0,100,30.31,30.14,4,0,4,0.00
2013-12-25,64.2,47.6,35.4,0.0,0.0,0.0,0,0,100,30.29,30.15,4,0,4,0.00
2013-12-26,64.9,47.3,34.5,0.0,0.0,0.0,0,0,100,30.25,30.12,4,0,4,0.00
2013-12-27,56.1,44.2,35.4,0.0,0.0,0.0,0,0,100,30.23,30.11,3,0,3,0.00
2013-12-28,64.9,45.8,32.2,0.0,0.0,0.0,0,0,100,30.15,29.99,4,0,4,0.00
2013-12-29,64.2,47.4,34.9,0.0,0.0,0.0,0,0,100,30.17,30.05,4,0,5,0.00
2013-12-30,62.4,46.5,33.6,0.0,0.0,0.0,0,0,100,30.24,30.15,4,0,5,0.00
2013-12-31,61.0,46.4,37.9,0.0,0.0,0.0,0,0,100,30.27,30.12,4,0,4,0.00
2014-1-1,64.8,46.7,33.8,0.0,0.0,0.0,0,0,100,30.20,30.09,3,0,8,0.00
2014-1-2,62.8,48.3,37.2,0.0,0.0,0.0,0,0,100,30.17,30.02,4,0,4,0.00